Location: Biltmore Gardens
(41.6070°N, 83.4666°W)
Time: 08:42:37
(UTC+00:00)

Vanguard 3 - Pass Details

Date: 27 April 2021
Orbit: 507 x 3262 km, 33.4° (Epoch: 17 May)

Event Time Altitude Azimuth Distance (km) Brightness Sun altitude
Rises 01:21:20 0° 197° (SSW) 6,505 11.6 -10.1°
Reaches altitude 10° 01:29:33 10° 174° (S) 4,827 10.7 -11.4°
Maximum altitude 01:34:23 13° 152° (SSE) 4,118 10.2 -12.2°
Enters shadow 01:36:22 12° 141° (SE) 3,961 10.1 -12.5°
